Simultaneous Nadir Overpasses (SNOs) Predictions

Prediction of SNOs between GOES-16 and AQUA Satellite Orbit:

Table of predicted SNOs for the next 14.0 days since TLE Epoch: 6/16/2022
Index Date Time (GOES-16) GOES-16 Lat,Lon AQUA Lat,Lon Distance(km) Time Diff (sec)
1 06/16/2022 06:44:31 0.01, -75.20 0.19, -76.11 103.95 80
2 06/18/2022 06:29:18 0.01, -75.20 -0.43, -73.05 243.93 80
3 06/18/2022 18:50:36 -0.01, -75.21 -0.63, -78.23 342.80 80
4 06/20/2022 18:38:02 -0.01, -75.22 0.01, -75.17 6.87 80
5 06/22/2022 18:28:08 -0.01, -75.25 0.68, -72.11 357.05 80
6 06/23/2022 06:49:17 0.01, -75.26 0.45, -77.23 225.41 80
7 06/25/2022 06:34:03 0.00, -75.29 -0.24, -74.18 125.59 80
8 06/25/2022 18:55:21 -0.00, -75.29 -0.86, -79.35 460.79 80
9 06/27/2022 06:21:28 -0.01, -75.32 -0.88, -71.12 477.03 80
10 06/27/2022 18:42:46 0.01, -75.33 -0.21, -76.29 109.18 80
11 06/29/2022 18:32:51 0.01, -75.37 0.47, -73.23 243.14 80
